W5CGC Weather Reports


Display with metric or nautical units.
time (UTC)temp
F
wind
direction
speed
MPH
gust
MPH
rain 1hr
in
rain 24hr
in
rain mn
in
humidity
%
barometer
mb
20260508013038 66 0 0.0 1.0 0.00 0.00 0.00 47 1014.4
20260508011535 67 85 0.0 2.0 0.00 0.00 0.00 46 1014.4
20260508010035 67 0 0.0 3.0 0.00 0.00 0.00 45 1014.6
20260508004538 68 94 1.0 4.0 0.00 0.00 0.00 43 1014.3
20260508003033 69 86 1.0 4.0 0.00 0.00 0.00 44 1014.4
20260508001533 70 0 0.0 4.0 0.00 0.00 0.00 42 1014.4
20260508000037 71 0 0.0 3.0 0.00 0.00 0.00 41 1014.7
20260507234545 73 0 1.0 3.0 0.00 0.00 0.00 39 1014.6
20260507233038 73 0 0.0 0.0 0.00 0.00 0.00 40 1014.6
20260507231540 73 0 0.0 0.0 0.00 0.00 0.00 41 1014.5
20260507230037 73 0 0.0 0.0 0.00 0.00 0.00 41 1014.7
20260507224535 73 0 0.0 0.0 0.00 0.00 0.00 42 1014.9
20260507223032 73 0 0.0 0.0 0.00 0.00 0.00 41 1014.9
20260507221538 73 0 0.0 0.0 0.00 0.00 0.00 38 1015.0
20260507220038 73 0 0.0 0.0 0.00 0.00 0.00 33 1015.1
20260507214535 73 0 0.0 1.0 0.00 0.00 0.00 33 1015.2
20260507213043 75 0 0.0 1.0 0.00 0.00 0.00 33 1015.3
20260507211534 75 0 0.0 1.0 0.00 0.00 0.00 31 1015.4
20260507210035 75 0 0.0 2.0 0.00 0.00 0.00 33 1015.6
20260507204537 75 166 0.0 2.0 0.00 0.00 0.00 31 1015.6
20260507203032 75 181 0.0 3.0 0.00 0.00 0.00 32 1015.5
20260507201539 76 0 0.0 2.0 0.00 0.00 0.00 31 1015.9
20260507200034 76 150 0.0 2.0 0.00 0.00 0.00 33 1016.0
20260507194536 74 134 0.0 3.0 0.00 0.00 0.00 34 1016.2
20260507193034 73 0 0.0 3.0 0.00 0.00 0.00 32 1016.5
20260507191534 73 174 1.0 4.0 0.00 0.00 0.00 32 1016.7
20260507190034 73 0 1.0 3.0 0.00 0.00 0.00 35 1017.0
20260507184537 73 154 0.0 5.0 0.00 0.00 0.00 38 1017.1
20260507183042 71 107 1.0 4.0 0.00 0.00 0.00 36 1017.3
20260507181532 71 195 2.0 6.0 0.00 0.00 0.00 35 1017.4
20260507180035 70 144 2.0 5.0 0.00 0.00 0.00 36 1017.8
20260507174532 71 210 1.0 4.0 0.00 0.00 0.00 36 1017.9
20260507173044 69 0 0.0 4.0 0.00 0.00 0.00 39 1018.3
20260507171550 68 154 1.0 5.0 0.00 0.00 0.00 38 1018.7
20260507170038 67 178 0.0 4.0 0.00 0.00 0.00 41 1019.1
20260507164532 67 108 1.0 3.0 0.00 0.00 0.00 42 1019.5
20260507163034 66 177 1.0 4.0 0.00 0.00 0.00 42 1019.3
20260507161539 66 172 1.0 3.0 0.00 0.00 0.00 42 1019.3
20260507160041 65 0 0.0 4.0 0.00 0.00 0.00 46 1019.3
20260507154538 64 224 1.0 4.0 0.00 0.07 0.00 47 1019.4
20260507153036 63 135 0.0 4.0 0.00 0.07 0.00 51 1019.5
20260507151537 62 193 1.0 3.0 0.00 0.07 0.00 53 1019.6
20260507150034 61 160 1.0 2.0 0.00 0.07 0.00 57 1019.7
20260507144600 60 0 0.0 2.0 0.00 0.07 0.00 60 1019.9
20260507143038 58 0 0.0 1.0 0.00 0.07 0.00 61 1020.0
20260507141540 57 0 0.0 1.0 0.00 0.07 0.00 64 1020.0
20260507140036 56 0 0.0 1.0 0.00 0.07 0.00 64 1020.1
20260507134535 55 0 0.0 1.0 0.00 0.07 0.00 67 1020.4
20260507133039 54 134 0.0 1.0 0.00 0.07 0.00 68 1020.4
20260507131532 54 0 0.0 1.0 0.00 0.07 0.00 70 1020.3
20260507130035 53 0 0.0 0.0 0.00 0.07 0.00 72 1020.3
20260507124537 52 0 0.0 1.0 0.00 0.07 0.00 72 1020.0
20260507123036 52 0 0.0 0.0 0.00 0.07 0.00 73 1019.8
20260507121535 51 0 0.0 0.0 0.00 0.07 0.00 71 1019.9
20260507120034 51 0 0.0 0.0 0.00 0.07 0.00 71 1019.5
20260507114532 51 0 0.0 0.0 0.00 0.07 0.00 70 1019.5
20260507113038 51 0 0.0 0.0 0.00 0.07 0.00 70 1019.3
20260507111541 51 0 0.0 1.0 0.00 0.07 0.00 70 1019.6
20260507110037 52 0 0.0 0.0 0.00 0.07 0.00 69 1019.5
20260507104534 52 0 0.0 0.0 0.00 0.07 0.00 68 1019.1
20260507103037 53 0 0.0 0.0 0.00 0.07 0.00 68 1018.9
20260507101544 53 0 0.0 1.0 0.00 0.07 0.00 69 1018.4
20260507100040 53 0 0.0 0.0 0.00 0.07 0.00 69 1018.4
20260507094544 54 133 0.0 1.0 0.00 0.07 0.00 68 1018.2
20260507093042 54 0 0.0 1.0 0.00 0.07 0.00 68 1017.8
20260507091536 54 0 0.0 1.0 0.00 0.07 0.00 67 1017.7
20260507090036 54 0 0.0 1.0 0.00 0.07 0.00 67 1017.6
20260507084536 54 0 0.0 1.0 0.00 0.07 0.00 66 1017.8
20260507083035 55 0 0.0 1.0 0.00 0.07 0.00 66 1017.8
20260507081539 55 0 0.0 1.0 0.00 0.07 0.00 65 1017.9
20260507080040 55 0 0.0 3.0 0.00 0.07 0.00 64 1017.7
20260507074535 55 0 0.0 2.0 0.00 0.07 0.00 64 1017.5
20260507073039 56 0 0.0 3.0 0.00 0.07 0.00 63 1017.4
20260507071535 56 125 0.0 1.0 0.00 0.07 0.00 63 1017.3
20260507070034 56 126 0.0 2.0 0.00 0.07 0.00 63 1017.2
20260507064533 57 0 0.0 1.0 0.00 0.07 0.00 63 1017.2
20260507063045 57 0 0.0 1.0 0.00 0.07 0.00 62 1017.2
20260507061535 57 0 0.0 1.0 0.00 0.07 0.00 62 1017.1
20260507060048 57 0 0.0 0.0 0.00 0.07 0.00 61 1016.9
20260507054546 58 0 0.0 1.0 0.00 0.07 0.00 61 1016.9
20260507053031 58 0 0.0 3.0 0.00 0.07 0.00 60 1016.7
20260507051531 58 134 0.0 1.0 0.00 0.07 0.00 60 1016.6
20260507050038 58 0 1.0 3.0 0.00 0.07 0.00 59 1016.8
20260507044548 58 0 0.0 3.0 0.00 0.07 0.07 58 1016.8
20260507043032 59 0 0.0 4.0 0.00 0.07 0.07 57 1017.0
20260507041532 59 0 0.0 2.0 0.00 0.07 0.07 56 1017.1
20260507040034 60 172 0.0 4.0 0.00 0.07 0.07 56 1017.3
20260507034535 60 84 0.0 4.0 0.00 0.07 0.07 56 1017.2
20260507033033 60 131 0.0 3.0 0.00 0.07 0.07 56 1017.3
20260507031532 60 143 1.0 7.0 0.00 0.07 0.07 56 1017.1
20260507030034 60 152 2.0 7.0 0.00 0.07 0.07 55 1017.1
20260507024539 61 138 1.0 5.0 0.00 0.07 0.07 55 1016.5
20260507023031 61 161 1.0 5.0 0.00 0.07 0.07 56 1016.3
20260507021537 61 124 1.0 5.0 0.00 0.07 0.07 56 1015.9
20260507020042 62 155 0.0 3.0 0.00 0.07 0.07 57 1015.8
20260507014538 62 101 0.0 2.0 0.00 0.07 0.07 56 1015.4